Regional Weather Roundup
Issued by NWS

Home | Current Version | Previous Version | Graphics & Text | Print | Product List | Glossary Off
Versions: 1 2 3 4 5 6 7 8 9 10 11 12 13 14 15 16 17 18 19 20 21 22 23 24 25 26 27 28 29 30 31 32 33 34 35 36 37 38 39 40 41 42 43 44 45 46 47 48 49 50

000
ASUS43 KTOP 140308
RWRKS

WEATHER ROUNDUP FOR KANSAS
NATIONAL WEATHER SERVICE GOODLAND KS
900 PM CST WED DEC 13 2017

NOTE:  "FAIR" INDICATES FEW OR NO CLOUDS BELOW 12,000 FEET WITH NO
SIGNIFICANT WEATHER AND/OR OBSTRUCTIONS TO VISIBILITY.

KSZ001>006-013>018-027>032-041>047-140400-
NORTHWEST KANSAS

CITY           SKY/WX    TMP DP  RH WIND       PRES   REMARKS
GOODLAND       CLOUDY    32  14  47 NW5       30.05R
HAYS           CLEAR     35  19  52 N9        30.01R
HILL CITY      CLOUDY    34  19  54 NW7       30.03R
RUSSELL        CLEAR     34  21  59 NW10      29.98R WCI  26
$$

KSZ061>065-074>080-084>089-140400-
SOUTHWEST KANSAS

CITY           SKY/WX    TMP DP  RH WIND       PRES   REMARKS
DODGE CITY     CLOUDY    40  15  36 N10       30.00S WCI  33
ELKHART        CLOUDY    48  20  33 NW7       30.02S
GARDEN CITY    CLOUDY    42  15  33 N14       30.01R
GREAT BEND     CLEAR     36  16  44 N7        30.00R
LIBERAL        CLOUDY    42  17  36 NW5       30.01S
PRATT          PTCLDY    41  15  35 N9        29.98R
$$

KSZ066>073-081>083-090>101-140400-
SOUTHEAST KANSAS

CITY           SKY/WX    TMP DP  RH WIND       PRES   REMARKS
CHANUTE        CLEAR     46  26  45 N10       29.92R
COFFEYVILLE    CLEAR     43  26  51 NW9       29.92R
HUTCHINSON     CLEAR     47  24  40 N15       29.96R
MEDICINE LODGE   N/A     44  22  41 N10       29.97R
NEWTON         CLEAR     38  22  52 N9        29.96R
PARSONS        CLEAR     40  25  55 NW6       29.93R
WICHITA INTL   PTCLDY    50  24  36 N13       29.94S
WICHITA JABRA  CLEAR     41  24  51 N12       29.94R
WICHITA MCCONL CLEAR     47  23  39 N10       29.94R
WINFIELD       CLEAR     38  23  55 NW8       29.95R
$$

KSZ007>012-019>026-033>040-048>060-102>105-140400-
NORTHEAST KANSAS

CITY           SKY/WX    TMP DP  RH WIND       PRES   REMARKS
CONCORDIA      CLEAR     37  24  59 W7        29.96R
EMPORIA        CLEAR     38  23  55 NW7       29.94R
LAWRENCE       CLEAR     43  30  60 N15G24    29.94R
MANHATTAN      CLEAR     45  26  47 N5        29.95R
MARYSVILLE     CLEAR     34  27  75 N6        29.97R
OLATHE IND     CLEAR     41  28  60 N12       29.92R
OLATHE EXE     CLEAR     43  29  57 N13       29.91R
SALINA         CLEAR     38  23  55 NW6       29.98R
TOPEKA BILLARD CLEAR     43  30  60 N14       29.94R
TOPEKA FORBES  CLEAR     44  28  53 N9        29.93R
$$




USA.gov is the U.S. government's official web portal to all federal, state and local government web resources and services.